Location: ??????
(56.0120°N, 39.1740°E)
Time: 10:34:59
(UTC+00:00)

CZ-4C R/B - Pass Details

Date: 14 April 2026
Orbit: 475 x 1502 km, 63.4° (Epoch: 19 May)

Event Time Altitude Azimuth Distance (km) Brightness Sun altitude
Exits shadow 23:46:59 18° 161° (SSE) 1,559 3.3 -17.9°
Maximum altitude 23:49:15 27° 118° (ESE) 1,322 3.3 -17.7°
Drops below altitude 10° 23:53:42 10° 62° (ENE) 2,399 5.6 -17.3°
Sets 23:56:49 0° 52° (NE) 3,533 7.0 -17.0°
